CubeBel-2 (EU11S)
1 57175U 23091K   26236.59656200  .00012095  00000-0  41024-3 0  9993
2 57175  97.4999 300.4778 0008313 224.1030 135.9548 15.30650105174766
RS-38S
1 57189U 23091Z   26236.57021520  .00015987  00000-0  42939-3 0  9996
2 57189  97.5044 307.5054 0007209 172.8956 187.2392 15.37987098175193
SONATE-2
1 59112U 24043Q   26236.33185495  .00045324  00000-0  48202-3 0  9995
2 59112  97.5589  31.2118 0004727 309.8563  50.2279 15.63896001138526
GRBBeta
1 60237U 24128C   26236.56985860  .00003354  00000-0  23450-3 0  9993
2 60237  61.9920 336.2674 0030985 149.6156 210.6742 15.07062959116571
Curium One
1 60242U 24128H   26236.24429903  .00006804  00000-0  38746-3 0  9992
2 60242  61.9799 324.5650 0029965 145.3342 214.9715 15.13389983116754
ROBUSTA-3A
1 60243U 24128J   26236.24846218  .00006659  00000-0  38838-3 0  9995
2 60243  61.9879 327.4061 0031876 142.3482 217.9854 15.12508028116713
CatSat
1 60246U 24125J   26236.06546429  .00091155  00000-0  82518-3 0  9995
2 60246  97.2011  89.8699 0014464 285.5810  74.3855 15.67651872117994
HYPERVIEW-1G (RS66S)
1 61772U 24199AP  26230.11543498  .07890463  24672-5  93922-3 0  9997
2 61772  97.2456 114.2453 0006603 245.8477 114.2131 16.36574258144515
AO-123
1 61781U 24199AY  26236.56307450  .00007256  00000-0  20481-3 0  9995
2 61781  97.2899 104.6238 0015236  66.5459 293.7386 15.36563616144420
LASARsat
1 62391U 24247Q   26236.48817849  .00036354  00000-0  62501-3 0  9996
2 62391  44.9711 237.1959 0007877  48.7761 311.3808 15.50520667 93909
CroCube
1 62394U 24247T   26235.35906192  .00041109  00000-0  64528-3 0  9999
2 62394  44.9686 239.6311 0008124  50.5412 309.6198 15.53009612 93774
JINJUSat 1B
1 63210U 25052A   26236.15949004  .00015781  00000-0  45999-3 0  9998
2 63210  97.3905 133.0696 0003128 157.2629 202.8754 15.35453571 80523
NUSHSAT 1
1 63211U 25052B   26235.17171990  .00018043  00000-0  47784-3 0  9999
2 63211  97.3880 132.8999 0002652 155.7534 204.3836 15.38414746 80430
TEVEL2-4
1 63213U 25052D   26236.20603729  .00018338  00000-0  51114-3 0  9995
2 63213  97.3801 132.7857 0001951 159.6685 200.4637 15.36824895 80555
TEVEL2-5
1 63214U 25052E   26236.56058799  .00017212  00000-0  48302-3 0  9991
2 63214  97.3801 133.0681 0001772 159.8940 200.2374 15.36626617 80606
TEVEL2-6
1 63215U 25052F   26236.18375104  .00018277  00000-0  51349-3 0  9999
2 63215  97.3803 132.6748 0001638 159.1120 201.0192 15.36580109 80547
TEVEL2-1
1 63217U 25052H   26236.49878451  .00016826  00000-0  48221-3 0  9991
2 63217  97.3779 132.5298 0001208 182.9959 177.1278 15.35975135 80574
TEVEL2-3
1 63218U 25052J   26236.16486433  .00017159  00000-0  49075-3 0  9999
2 63218  97.3779 132.2270 0001026 169.0363 191.0903 15.36036290 80521
TEVEL2-2
1 63219U 25052K   26236.17285483  .00017115  00000-0  49041-3 0  9998
2 63219  97.3778 132.2066 0001157 185.4014 174.7218 15.35977410 80528
TEVEL2-9
1 63237U 25052AD  26236.17658937  .00015717  00000-0  48233-3 0  9994
2 63237  97.3841 131.4296 0003742 254.2042 105.8788 15.33824437 80449
TEVEL2-7
1 63238U 25052AE  26235.51388802  .00015154  00000-0  47057-3 0  9991
2 63238  97.3840 130.6525 0003641 257.9226 102.1608 15.33456949 80335
TEVEL2-8
1 63239U 25052AF  26236.50155594  .00015011  00000-0  46589-3 0  9993
2 63239  97.3842 131.6142 0003732 255.1503 104.9327 15.33475254 80487
SPIRONE
1 66657U 25274H   26236.25047023  .00001347  00000-0  13229-3 0  9997
2 66657  97.7469 164.5763 0012809 141.5024 218.7112 14.93777872 40385
K-HERO
1 66660U 25274L   26236.23654822  .00001504  00000-0  14554-3 0  9997
2 66660  97.7478 164.7731 0014612 146.1578 214.0578 14.94176250 40395
SNUGLITE-III DURI
1 66661U 25274M   26236.49099269  .00001657  00000-0  15972-3 0  9998
2 66661  97.7473 165.0449 0015278 146.6948 213.5237 14.94190725 40430
SAKHACUBE-CHOLBON
1 67290U 25313AU  26236.18386050  .00008711  00000-0  34117-3 0  9994
2 67290  97.3892 310.4040 0010645 113.4583 246.7776 15.25981167 36347
RS95S (QMR-KWT-2)
1 67291U 25313AV  26236.16381408  .00013845  00000-0  51013-3 0  9993
2 67291  97.3889 310.7264 0010206 112.1555 248.0769 15.27888233 36364
Ten-Koh2
1 68261U 25241B   26236.59529002  .00007134  00000-0  29812-3 0  9998
2 68261  51.6644 353.8573 0006634   8.9705 351.1391 15.24650253 25343
JACK-002
1 68417U 26067B   26235.45140564  .00005471  00000-0  25628-3 0  9997
2 68417  97.4621 193.2668 0003747  65.3464 294.8161 15.20115020 22160
DISCO 2
1 68431U 26067R   26235.94362687  .00007060  00000-0  33112-3 0  9992
2 68431  97.4652 193.7486 0004144 102.7841 257.3858 15.19971810 22230
HADES-SA (SpinnyONE)
1 68446U 26067AG  26236.61354550  .00016709  00000-0  75147-3 0  9997
2 68446  97.4448 194.0102 0006165 173.0068 187.1255 15.21170102 22324
PARUS-6U1
1 68456U 26067AS  26236.61846644  .00004962  00000-0  24627-3 0  9993
2 68456  97.4607 193.9824 0005616 166.1489 193.9900 15.18140677 22312
SAL-E
1 68458U 26067AU  26236.59743294  .00006402  00000-0  31241-3 0  9990
2 68458  97.4530 193.8673 0005453 174.2136 185.9163 15.18621312 22310
FSI-SAT 2
1 68792U 26088A   26236.34109966  .00003672  00000-0  24699-3 0  9994
2 68792  97.5157  23.9479 0013003 230.0923 129.9163 15.07293263 18556
OrigamiSat 2
1 68795U 26088D   26236.37663870  .00012170  00000-0  74881-3 0  9990
2 68795  97.5136  24.3597 0014557 200.1495 159.9161 15.10077752 18580
ARICA 2
1 68796U 26088E   26236.34406820  .00003957  00000-0  25442-3 0  9990
2 68796  97.5149  24.2348 0014962 199.3192 160.7471 15.08890169 18576
WASEDA-SAT-ZERO-II
1 68797U 26088F   26235.86150612  .00005024  00000-0  31847-3 0  9995
2 68797  97.5140  23.8003 0014785 200.4294 159.6345 15.09289550 18508
MANGARO-II-Piscus
1 68798U 26088G   26235.85115205  .00002874  00000-0  18424-3 0  9990
2 68798  97.5151  23.8310 0018255 205.0510 154.9835 15.09187075 18501
CO-128
1 69912U 26156AV  26236.53238129  .00001358  00000-0  14332-3 0  9992
2 69912  97.7504 136.1310 0002684  17.7322 342.3990 14.90893596  7188
MARINA
1 69920U 26156BD  26235.22048699  .00001984  00000-0  20071-3 0  9999
2 69920  97.7474 134.9093 0007769  11.3753 348.7640 14.92085499  6991
IO-86
1 40931U          26199.45381863  .00000000  00000-0  77536-4 0    07
2 40931   6.0006 322.6653 0012733 338.8432 273.6875 14.79294310    03
LILIUM-4                
1 71922C 26067AC  26089.50133053 -.00014632  00000+0 -74472-3 0    04
2 71922  97.4497  49.1617 0004341   5.9603 355.7042 15.16896692    16
